Weather in Dankov

Russia / Lipetsk Oblast     53°14′46″N   39°08′03″E
temp.,
°C
wind,
m/s
gust,
m/s
humid.,
%
clouds,
%
prec.,
mm/h
press.,
hPa
HPBL,
m
2 july, sat
sat200:00+8n36800 0.0 1020106
03:00+8nnw411770 0.0 1020224
06:00+10n513760 0.0 1020402
09:00+17nne712625 0.0 10201009
12:00+20n810510 0.0 10201601
15:00+21n810460 0.0 10191851
18:00+21nnw58585 0.0 1018918
21:00+16nw512710 0.0 1018248
3 july, sun
sun300:00+14nnw487722 0.0 1017123
03:00+13nnw35795 0.0 101773
06:00+15nw48757 0.0 1016206
09:00+18nw377070 0.0 1016274
12:00+24n57589 0.1 10151339
15:00+25nne5753100 0.5 10142012
18:00+23nne356622 0.1 1015593
21:00+19nw227472 0.1 101511
4 july, mon
mon400:00+19nw36720 0.0 1015133
03:00+17ne228163 0.0 101631
06:00+17e24805 0.0 1017104
09:00+22ene23630 0.0 1017542
12:00+25ne345325 0.0 10171649
15:00+25nne2349100 0.0 1017960
18:00+23n2265100 0.0 101734
21:00+20sw22640 0.0 101711
5 july, tue
tue500:00+19w336797 0.0 101843
03:00+17w22763 0.0 101823
06:00+18w24781 0.0 1019102
09:00+24w23610 0.0 1019487
12:00+27w33460 0.0 10181715
15:00+28w434329 0.0 10182305
18:00+24nw015995 0.0 101811
21:00+23w336361 0.0 101737
6 july, wed
wed600:00+19wnw228543 0.3 101820
03:00+18sw228768 0.9 101826
06:00+19wsw24853 0.6 1018119
09:00+24wsw45676 0.6 1018477
12:00+27wsw465546 0.0 1018809
15:00+28sw5548100 0.0 10171775
18:00+26sw475873 0.0 1016400
21:00+21ssw46696 0.0 101695